This is the latest recevied weather packets stored in our database for station/object AC2VK-1. If no packets are shown the sender has not sent any weather packets the latest 10 day(s).
| Time | Temp. | Humidity | Pressure | Rain* | Wind** | Luminosity | Snow |
|---|---|---|---|---|---|---|---|
| 1777686567 | 16.11° C | 57% | 1016.1 hPa | 0 mm | - | - | - |
| 1777685967 | 16.67° C | 56% | 1015.9 hPa | 0 mm | - | - | - |
| 1777685367 | 16.67° C | 56% | 1015.7 hPa | 0 mm | - | - | - |
| 1777684767 | 16.67° C | 58% | 1015.4 hPa | 0 mm | - | - | - |
| 1777684167 | 17.22° C | 56% | 1015.2 hPa | 0 mm | - | - | - |
| 1777683567 | 17.22° C | 53% | 1015.1 hPa | 0 mm | - | - | - |
| 1777682967 | 17.22° C | 53% | 1014.8 hPa | 0 mm | - | - | - |
| 1777682367 | 17.22° C | 53% | 1014.6 hPa | 0 mm | - | - | - |
| 1777681767 | 17.78° C | 53% | 1014.5 hPa | 0 mm | - | - | - |
| 1777681167 | 17.78° C | 54% | 1014.5 hPa | 0 mm | - | - | - |
| 1777680567 | 17.78° C | 53% | 1014.5 hPa | 0 mm | - | - | - |
| 1777679967 | 17.78° C | 52% | 1014.6 hPa | 0 mm | - | - | - |
| 1777679367 | 18.33° C | 51% | 1014.2 hPa | 0 mm | - | - | - |
| 1777678767 | 18.33° C | 51% | 1014.2 hPa | 0 mm | - | - | - |
| 1777678167 | 18.33° C | 49% | 1013.9 hPa | 0 mm | - | - | - |
| 1777677567 | 18.33° C | 49% | 1013.6 hPa | 0 mm | - | - | - |
| 1777676967 | 18.89° C | 49% | 1013.9 hPa | 0 mm | - | - | - |
| 1777676367 | 18.89° C | 47% | 1013.7 hPa | 0 mm | - | - | - |
| 1777675767 | 19.44° C | 46% | 1013.8 hPa | 0 mm | - | - | - |
| 1777675167 | 19.44° C | 45% | 1013.7 hPa | 0 mm | - | - | - |
| 1777674568 | 19.44° C | 46% | 1013.7 hPa | 0 mm | - | - | - |
| 1777673968 | 20° C | 45% | 1013.9 hPa | 0 mm | - | - | - |
| 1777673367 | 20° C | 44% | 1014.1 hPa | 0 mm | - | - | - |
| 1777672767 | 20° C | 43% | 1014.3 hPa | 0 mm | - | - | - |
| 1777672167 | 20.56° C | 47% | 1014.4 hPa | 0 mm | - | - | - |
* Rain latest hour (hover to see other rain measurements)
** Current wind speed in m/s (hover to see current wind gust speed)